Back to catalog

CZ-6A DEB

AlivePO
NORAD 54294·DEBRIS·🇨🇳 China

Launched Nov 11, 2022 from Taiyuan Satellite Launch Center

Loading…

Next Passes (next 24 hours)

TLE

FreshSource: Space-Track

Epoch: Sep 14, 2026, 06:41 UTC

1 54294U 22151AM  26257.27872570  .00003920  00000-0  55438-3 0  9997
2 54294  98.7596  10.8324 0109690 297.8006  61.2115 14.73717721204153

Track CZ-6A DEB in real time with AllMySat

Download on the App Store